Weather reports worldwide

Advertisment
Kempten, Germany (10946): temperature & dewpoint: 12.01.2018 07:00:00 - 18.01.2018 07:00:00 (CET)Kempten, Germany (10946): temperature 5cm & temperature -5cm: 12.01.2018 07:00:00 - 18.01.2018 07:00:00 (CET)Kempten, Germany (10946): temperature -20cm & temperature -100cm: 12.01.2018 07:00:00 - 18.01.2018 07:00:00 (CET)Kempten, Germany (10946): wind speed & gusts: 12.01.2018 07:00:00 - 18.01.2018 07:00:00 (CET)Kempten, Germany (10946): wind direction: 12.01.2018 07:00:00 - 18.01.2018 07:00:00 (CET)Kempten, Germany (10946): reduced air pressure: 12.01.2018 07:00:00 - 18.01.2018 07:00:00 (CET)Kempten, Germany (10946): visibility: 12.01.2018 07:00:00 - 18.01.2018 07:00:00 (CET)Kempten, Germany (10946): sunshine duration: 12.01.2018 07:00:00 - 18.01.2018 07:00:00 (CET)Kempten, Germany (10946): precipitation: 12.01.2018 07:00:00 - 18.01.2018 07:00:00 (CET)
Date & Time tt [°C] td [°C] tt 5cm [°C] tt -5cm [°C] tt -20cm [°C] tt -100cm [°C] ff [km/h] ff [kn] fx [km/h] fx [kn] dd ppp [hPa] vv [km] sd [min] rr [mm]
18.01.2018 07:00:00 0,6 -1,9 -0,4 0,4 1,3 4,9 16 8 29 16 SSW 1012,7 7 0 0,1
18.01.2018 06:00:00 0,1 -1,3 -0,4 0,4 1,3 4,9 15 8 28 15 SSW 1014,2 1,8 0 0,2
18.01.2018 05:00:00 0,0 -1,4 -0,4 0,4 1,3 4,9 16 8 42 23 SW 1014,8 1,5 0 0,4
18.01.2018 04:00:00 0,4 -2,1 -0,6 0,4 1,3 4,9 18 10 53 28 WSW 1015,9 6 0 0,1
18.01.2018 03:00:00 -0,2 -1,8 -0,8 0,5 1,3 4,9 17 9 54 29 WSW 1017,0 11 0 0,2
18.01.2018 02:00:00 0,2 -3,2 -1,2 0,5 1,3 4,9 18 10 50 27 WSW 1016,4 40 0 0,0
18.01.2018 01:00:00 0,3 -3,4 -1,2 0,5 1,3 4,9 18 10 38 21 WSW 1016,7 39 0 0,2
18.01.2018 00:00:00 -0,2 -2,8 -1,0 0,5 1,3 4,9 18 10 45 24 WSW 1016,6 4,3 0 0,6
17.01.2018 23:00:00 0,1 -3,0 -0,8 0,5 1,3 4,9 21 11 51 28 WSW 1016,5 3,2 0 0,0
17.01.2018 22:00:00 0,2 -3,1 -0,9 0,5 1,3 4,8 21 11 52 28 WSW 1015,9 34 0 0,0
17.01.2018 21:00:00 -0,3 -2,8 -1,1 0,5 1,3 4,8 22 12 46 25 WSW 1015,4 1,8 0 0,3
17.01.2018 20:00:00 -0,9 -2,4 -0,7 0,5 1,3 4,8 20 11 49 26 WSW 1015,1 0,6 0 0,0
17.01.2018 19:00:00 -0,4 -3,5 -1,3 0,5 1,3 4,8 20 11 50 27 WSW 1013,9 17 0 0,0
17.01.2018 18:00:00 -0,4 -4,0 -1,4 0,5 1,3 4,8 21 11 40 22 W 1013,5 21 0 0,0
17.01.2018 17:00:00 -0,3 -3,9 -0,8 0,5 1,3 4,8 21 11 44 24 W 1012,7 5 0 0,0
17.01.2018 16:00:00 -0,1 -4,3 -1,3 0,5 1,4 4,8 18 10 45 25 W 1012,0 35 1 0,0
17.01.2018 15:00:00 -0,2 -4,4 -0,3 0,5 1,4 4,8 13 7 45 24 W 1011,1 18 1 0,2
17.01.2018 14:00:00 -0,4 -4,9 0,0 0,5 1,4 4,8 24 13 51 27 W 1010,5 29 4 0,3
17.01.2018 13:00:00 -1,0 -1,7 0,0 0,5 1,4 4,8 26 14 61 33 W 1008,8 2,5 1 0,3
17.01.2018 12:00:00 -0,6 -3,0 -0,4 0,5 1,4 4,8 18 10 55 30 W 1007,3 4,0 0 1,7
17.01.2018 11:00:00 -0,2 -3,1 -0,7 0,5 1,4 4,8 18 10 52 28 W 1007,2 11 0 0,5
17.01.2018 10:00:00 -0,1 -1,7 -0,4 0,5 1,5 4,8 18 10 56 30 W 1005,6 4,0 0 0,2
17.01.2018 09:00:00 1,0 -2,7 0,0 0,5 1,5 4,7 23 13 53 28 WSW 1003,6 32 0 0,3
17.01.2018 08:00:00 0,8 -1,6 0,0 0,5 1,6 4,7 22 12 47 26 W 1002,7 52 0 0,5
17.01.2018 07:00:00 0,6 -0,5 0,0 0,5 1,7 4,7 19 11 57 31 W 1002,4 3,4 0 1,2
17.01.2018 06:00:00 0,6 -0,8 0,0 0,6 1,8 4,7 20 11 38 20 WSW 1001,1 18 0 3,7
17.01.2018 05:00:00 0,4 -0,2 0,0 0,8 1,9 4,6 15 8 53 29 WSW 1000,6 0,6 0 1,7
17.01.2018 04:00:00 1,6 0,1 0,7 1,4 1,9 4,6 21 12 49 26 WSW 1000,4 9 0 0,6
17.01.2018 03:00:00 2,8 0,1 1,7 1,2 1,9 4,6 21 11 47 26 WSW 1000,0 66 0 0,6
17.01.2018 02:00:00 1,0 0,2 0,0 1,2 2,0 4,5 10 5 27 15 SW 1000,9 3,2 0 1,3
17.01.2018 01:00:00 1,9 0,2 1,2 1,7 2,1 4,6 14 7 45 25 SW 1001,4 7 0 0,8
17.01.2018 00:00:00 2,9 0,8 1,9 1,6 2,1 4,5 22 12 41 22 WSW 1001,4 44 0 1,2
16.01.2018 23:00:00 1,6 0,5 0,7 1,6 2,2 4,5 12 6 50 27 W 1002,4 5 0 1,9
16.01.2018 22:00:00 3,4 1,8 2,5 2,2 2,2 4,4 21 11 46 25 WSW 1001,3 15 0 2,4
16.01.2018 21:00:00 3,6 1,6 2,9 2,0 2,2 4,4 15 8 37 20 WSW 1001,7 66 0 0,0
16.01.2018 20:00:00 1,7 0,7 0,9 1,8 2,3 4,2 13 7 22 12 SSW 1002,7 62 0 2,7
16.01.2018 19:00:00 3,3 1,0 2,4 2,4 2,3 4,4 19 10 48 26 W 1003,0 3,0 0 0,9
16.01.2018 18:00:00 4,0 1,5 2,9 2,5 2,3 4,2 18 10 44 24 W 1002,5 9 0 0,8
16.01.2018 17:00:00 3,9 2,1 3,0 2,6 2,3 3,9 19 10 63 34 W 1002,6 2,8 0 4,4
16.01.2018 16:00:00 3,1 2,2 2,6 2,9 2,1 - 20 11 54 29 W 1001,9 1,7 0 4,5
16.01.2018 15:00:00 4,8 2,8 4,0 3,0 1,8 4,4 22 12 46 25 SW 999,9 11 0 3,5
16.01.2018 14:00:00 3,9 2,6 3,2 2,9 1,5 4,8 18 10 47 25 SW 1000,7 3,2 0 2,8
16.01.2018 13:00:00 4,5 3,0 4,0 2,6 1,1 5,0 16 9 44 24 SW 1001,5 7 0 1,4
16.01.2018 12:00:00 5,9 1,5 4,9 1,7 0,9 5,1 22 12 53 28 WSW 1001,8 70 0 0,6
16.01.2018 11:00:00 4,4 2,2 3,3 0,7 0,8 5,1 19 11 44 24 SW 1003,2 6 0 0,9
16.01.2018 10:00:00 4,5 1,7 3,2 0,1 0,8 5,1 19 11 49 27 SW 1003,0 48 2 1,7
16.01.2018 09:00:00 4,9 1,9 3,1 0,0 0,9 5,2 23 13 59 32 SW 1002,5 4,7 0 0,6
16.01.2018 08:00:00 4,5 1,7 2,8 0,0 0,9 5,2 19 10 42 23 SW 1002,5 25 0 0,6
16.01.2018 07:00:00 3,9 1,2 2,4 0,0 0,9 5,2 19 10 36 20 SW 1002,7 5 0 0,8
16.01.2018 06:00:00 3,6 0,4 2,1 0,0 0,9 5,2 13 7 37 20 SW 1004,1 17 0 0,1
16.01.2018 05:00:00 2,6 0,9 1,6 0,0 0,9 5,2 18 10 35 19 SW 1005,5 8 0 1,2
16.01.2018 04:00:00 2,4 0,9 1,5 0,0 0,9 5,2 14 8 29 16 WSW 1005,8 4,8 0 0,6
16.01.2018 03:00:00 2,4 1,1 1,5 0,0 0,9 5,2 11 6 31 17 WSW 1006,0 9 0 0,6
16.01.2018 02:00:00 2,1 0,3 0,9 0,0 0,9 5,2 9 5 33 18 SW 1006,5 12 0 0,2
16.01.2018 01:00:00 3,2 -2,5 1,4 0,0 0,9 5,2 14 7 32 18 SW 1007,0 21 0 0,0
16.01.2018 00:00:00 3,0 -4,0 1,4 0,0 0,9 5,2 7 4 18 10 S 1008,1 11 0 0,0
15.01.2018 23:00:00 3,7 -3,7 2,2 0,0 0,9 5,2 13 7 32 17 S 1008,3 58 0 0,0
15.01.2018 22:00:00 2,4 -4,0 1,2 -0,1 0,9 5,2 6 4 14 8 SW 1010,0 31 0 0,0
15.01.2018 21:00:00 1,7 -3,0 0,2 -0,1 0,9 5,2 8 5 15 8 S 1011,2 22 0 0,0
15.01.2018 20:00:00 0,3 -3,4 -1,1 -0,1 0,9 5,2 3 2 11 6 W 1012,2 30 0 0,0
15.01.2018 19:00:00 0,8 -3,2 -1,3 -0,1 0,9 5,2 5 3 10 5 NW 1012,1 12 0 0,0
15.01.2018 18:00:00 1,4 -3,1 -0,5 -0,1 0,9 5,2 0 0 6 4 N 1012,7 36 0 0,0
15.01.2018 17:00:00 3,0 -3,6 0,0 -0,1 0,9 5,2 3 2 8 5 ESE 1013,5 30 0 0,0
15.01.2018 16:00:00 5,2 -4,0 2,2 -0,1 0,9 5,2 5 3 12 7 SSE 1014,3 54 6 0,0
15.01.2018 15:00:00 6,3 -4,9 4,6 -0,1 0,9 5,2 6 4 17 9 W 1015,0 70 1 0,0
15.01.2018 14:00:00 7,3 -4,3 6,7 -0,1 0,9 5,2 7 4 23 12 WSW 1015,6 59 22 0,0
15.01.2018 13:00:00 7,1 -5,0 7,0 -0,2 0,9 5,2 16 9 27 15 WSW 1016,7 31 60 0,0
15.01.2018 12:00:00 4,4 -3,9 4,6 -0,3 0,9 5,2 8 5 14 8 S 1019,1 35 60 0,0
15.01.2018 11:00:00 0,9 -5,2 0,4 -0,4 1,0 5,2 7 4 14 7 S 1021,4 31 60 0,0
15.01.2018 10:00:00 -2,2 -6,1 -2,8 -0,6 1,0 5,2 6 4 12 7 SSE 1022,6 22 60 0,0
15.01.2018 09:00:00 -6,1 -7,4 -7,0 -0,6 1,0 5,3 6 3 9 5 ESE 1024,4 9 8 0,0
15.01.2018 08:00:00 -6,1 -7,2 -8,0 -0,5 1,1 5,3 1 0 6 3 E 1024,6 7 0 0,0
15.01.2018 07:00:00 -5,6 -6,8 -7,5 -0,4 1,1 5,3 3 1 7 4 SSE 1024,4 10 0 0,0
15.01.2018 06:00:00 -5,4 -6,8 -7,2 -0,3 1,1 5,3 4 2 14 8 ESE 1024,4 7 0 0,0
15.01.2018 05:00:00 -4,8 -6,2 -6,0 -0,2 1,2 5,3 8 5 11 6 ESE 1024,3 7 0 0,0
15.01.2018 04:00:00 -5,0 -6,3 -7,0 -0,1 1,2 5,3 6 3 11 6 SE 1024,8 6 0 0,0
15.01.2018 03:00:00 -5,3 -6,4 -7,0 0,0 1,2 5,3 5 3 8 4 SE 1025,4 5 0 0,0
15.01.2018 02:00:00 -4,8 -6,1 -6,3 0,1 1,2 5,3 5 3 6 3 ESE 1025,4 5 0 0,0
15.01.2018 01:00:00 -4,0 -5,3 -5,3 0,2 1,2 5,3 4 2 6 3 ESE 1025,5 6 0 0,0
15.01.2018 00:00:00 -2,2 -4,3 -4,7 0,2 1,2 5,3 4 2 10 5 SW 1025,0 8 0 0,0
14.01.2018 23:00:00 -0,8 -3,9 -1,9 0,2 1,2 5,3 5 3 11 6 SW 1024,3 9 0 0,0
14.01.2018 22:00:00 -0,5 -3,0 -1,1 0,2 1,3 5,3 0 0 3 2 N 1024,2 8 0 0,0
14.01.2018 21:00:00 -0,5 -3,0 -1,1 0,2 1,3 5,3 0 0 6 4 N 1023,9 10 0 0,0
14.01.2018 20:00:00 -0,5 -3,0 -0,9 0,2 1,3 5,3 5 3 7 4 NW 1023,8 11 0 0,0
14.01.2018 19:00:00 -1,3 -3,4 -1,5 0,1 1,3 5,3 0 0 4 2 N 1023,5 8 0 0,0
14.01.2018 18:00:00 -1,9 -4,2 -2,6 0,1 1,3 5,3 2 1 5 3 N 1023,4 6 0 0,0
14.01.2018 17:00:00 -1,2 -3,7 -3,8 0,1 1,3 5,3 0 0 4 2 N 1022,7 9 0 0,0
14.01.2018 16:00:00 0,1 -4,0 -2,2 0,1 1,3 5,3 0 0 5 3 N 1021,9 14 0 0,0
14.01.2018 15:00:00 0,5 -4,4 -0,4 0,1 1,3 5,3 5 3 8 4 NW 1021,5 16 1 0,0
14.01.2018 14:00:00 0,3 -4,5 0,2 0,1 1,3 5,3 2 1 10 5 WSW 1021,6 14 0 0,0
14.01.2018 13:00:00 0,0 -4,0 0,7 0,1 1,3 5,3 7 4 11 6 S 1021,9 13 3 0,0
14.01.2018 12:00:00 -1,0 -3,6 0,1 0,1 1,4 5,3 5 3 12 6 S 1022,8 10 4 0,0
14.01.2018 11:00:00 -2,1 -4,0 -1,1 0,1 1,4 5,3 7 4 12 7 S 1023,5 9 2 0,0
14.01.2018 10:00:00 -3,3 -4,6 -2,1 0,1 1,4 5,3 6 3 14 8 S 1023,6 7 5 0,0
14.01.2018 09:00:00 -4,1 -5,3 -3,5 0,0 1,5 5,3 10 6 16 9 S 1023,5 9 0 0,0
14.01.2018 08:00:00 -4,1 -5,6 -4,2 0,1 1,5 5,3 8 4 14 7 S 1023,3 12 0 0,0
14.01.2018 07:00:00 -3,6 -4,9 -3,6 0,1 1,5 5,3 4 2 8 4 SE 1022,7 10 0 0,0
14.01.2018 06:00:00 -3,5 -4,8 -3,4 0,1 1,6 5,3 2 1 8 4 SE 1022,5 8 0 0,0
14.01.2018 05:00:00 -3,8 -4,9 -3,6 0,1 1,6 5,3 4 2 6 4 SE 1022,6 7 0 0,0
14.01.2018 04:00:00 -4,9 -6,1 -6,1 0,1 1,7 5,3 5 3 6 4 ESE 1023,2 7 0 0,0
14.01.2018 03:00:00 -4,8 -5,7 -6,9 0,2 1,7 5,3 5 3 7 4 ESE 1023,3 5 0 0,0
14.01.2018 02:00:00 -4,1 -5,2 -6,0 0,3 1,8 5,3 5 3 6 3 ESE 1023,1 6 0 0,0
14.01.2018 01:00:00 -2,9 -4,0 -4,8 0,4 1,8 5,3 0 0 7 4 N 1022,7 6 0 0,0
14.01.2018 00:00:00 -2,3 -3,7 -3,3 0,4 1,9 5,3 5 3 8 4 E 1023,0 7 0 0,0
13.01.2018 23:00:00 -2,1 -3,4 -2,4 0,5 2,0 5,3 0 0 6 3 N 1023,4 8 0 0,0
13.01.2018 22:00:00 -3,3 -4,8 -4,3 0,5 2,0 5,3 3 2 5 3 N 1023,9 7 0 0,0
13.01.2018 21:00:00 -3,1 -4,4 -5,2 0,6 2,1 5,3 0 0 6 3 N 1023,9 6 0 0,0
13.01.2018 20:00:00 -2,6 -3,8 -5,0 0,7 2,3 5,3 3 2 6 4 N 1023,8 8 0 0,0
13.01.2018 19:00:00 -1,7 -3,7 -4,3 0,8 2,4 5,3 4 2 10 5 NE 1023,7 8 0 0,0
13.01.2018 18:00:00 -0,5 -3,0 -2,5 1,1 2,5 5,3 5 3 6 4 E 1023,5 9 0 0,0
13.01.2018 17:00:00 -0,1 -3,3 -1,6 1,4 2,6 5,3 3 2 12 6 NE 1023,6 16 0 0,0
13.01.2018 16:00:00 1,1 -3,6 -0,1 2,5 2,5 5,3 6 4 14 8 ESE 1023,4 19 57 0,0
13.01.2018 15:00:00 2,2 -3,1 3,7 2,8 2,4 5,3 3 1 10 5 SSE 1022,9 23 7 0,0
13.01.2018 14:00:00 1,3 -3,6 2,1 2,9 2,2 5,3 4 2 14 7 NE 1023,4 21 0 0,0
13.01.2018 13:00:00 0,8 -3,4 1,9 2,3 2,1 5,3 7 4 13 7 E 1023,9 17 0 0,0
13.01.2018 12:00:00 0,4 -3,4 1,3 1,7 2,0 5,3 7 4 15 8 E 1024,6 15 0 0,0
13.01.2018 11:00:00 0,4 -3,3 0,7 1,2 2,0 5,3 7 4 14 7 E 1025,3 16 0 0,0
13.01.2018 10:00:00 0,4 -3,2 0,4 1,0 2,0 5,3 8 4 13 7 ESE 1025,2 16 0 0,0
13.01.2018 09:00:00 0,3 -2,9 0,1 0,8 2,0 5,3 6 3 12 7 ESE 1025,4 13 0 0,0
13.01.2018 08:00:00 0,1 -3,1 -0,1 0,8 2,1 5,3 8 4 16 9 SSE 1025,4 17 0 0,0
13.01.2018 07:00:00 0,3 -2,5 0,0 0,9 2,1 5,3 5 3 10 5 ESE 1025,3 13 0 0,0
13.01.2018 06:00:00 0,3 -2,4 0,0 0,9 2,2 5,3 6 3 13 7 SSE 1025,6 13 0 0,0
13.01.2018 05:00:00 0,2 -2,4 0,1 1,0 2,2 5,3 10 5 20 11 E 1025,7 13 0 0,0
13.01.2018 04:00:00 0,2 -2,4 0,1 1,0 2,3 5,3 11 6 19 10 E 1025,9 12 0 0,0
13.01.2018 03:00:00 0,5 -2,3 0,3 1,1 2,3 5,3 9 5 22 12 E 1026,0 12 0 0,0
13.01.2018 02:00:00 0,6 -2,3 0,4 1,2 2,4 5,3 9 5 17 9 E 1025,9 12 0 0,0
13.01.2018 01:00:00 0,7 -2,1 0,4 1,3 2,5 5,3 7 4 19 10 E 1025,9 14 0 0,0
13.01.2018 00:00:00 0,8 -2,1 0,6 1,3 2,5 5,3 9 5 20 11 E 1026,3 14 0 0,0
12.01.2018 23:00:00 0,9 -2,1 0,7 1,4 2,6 5,3 12 6 22 12 E 1026,5 14 0 0,0
12.01.2018 22:00:00 0,9 -2,2 0,7 1,6 2,7 5,3 10 5 17 9 ENE 1026,3 14 0 0,0
12.01.2018 21:00:00 1,3 -1,8 1,0 1,7 2,7 5,3 8 4 22 12 E 1026,2 12 0 0,0
12.01.2018 20:00:00 1,5 -1,7 1,0 1,8 2,8 5,3 10 5 20 11 E 1025,9 15 0 0,0
12.01.2018 19:00:00 1,7 -1,3 1,3 2,0 2,9 5,3 6 4 11 6 E 1026,0 13 0 0,0
12.01.2018 18:00:00 1,6 -1,5 1,2 2,2 2,9 5,3 8 4 22 12 E 1025,9 16 0 0,0
12.01.2018 17:00:00 1,6 -1,5 1,4 2,6 2,9 5,3 8 5 19 11 ENE 1025,8 17 0 0,0
12.01.2018 16:00:00 2,1 -0,7 2,0 2,9 2,9 5,3 6 3 16 9 ENE 1025,3 11 0 0,0
12.01.2018 15:00:00 1,9 -1,0 2,3 3,0 2,8 5,3 9 5 18 10 ESE 1024,8 15 0 0,0
12.01.2018 14:00:00 1,7 -0,8 2,1 3,0 2,8 5,3 7 4 16 9 E 1024,9 14 0 0,0
12.01.2018 13:00:00 1,6 -0,3 2,0 2,8 2,7 5,3 6 3 10 6 ENE 1024,8 10 0 0,0
12.01.2018 12:00:00 1,7 -0,2 2,1 2,7 2,6 5,3 5 3 10 6 ESE 1025,1 13 0 0,0
12.01.2018 11:00:00 1,4 -0,4 1,6 2,4 2,6 5,3 6 4 15 8 NE 1025,1 10 0 0,0
12.01.2018 10:00:00 1,1 0,0 1,2 2,1 2,6 5,3 9 5 14 8 NE 1024,7 7 0 0,0
12.01.2018 09:00:00 1,5 0,4 1,3 2,0 2,6 5,3 6 3 10 5 ENE 1024,2 7 0 0,0
12.01.2018 08:00:00 1,4 0,3 1,2 2,0 2,6 5,3 5 3 11 6 ENE 1023,9 5 0 0,0
12.01.2018 07:00:00 1,5 0,5 1,3 2,0 2,6 5,3 6 3 11 6 NNE 1023,3 4,4 0 0,0

tt = temperature
td = dewpoint
tt 5cm = temperature 5cm
tt -5cm = temperature -5cm
tt -20cm = temperature -20cm
tt -100cm = temperature -100cm
ff = wind speed
fx = gusts
dd = wind direction
ppp = reduced air pressure
vv = visibility
sd = sunshine duration
rr = precipitation

Next stations